User: anonymous   Login
Location: Ústí nad Labem
(50.6611°N, 14.0531°E)
Time: 19:00:59
(UTC+02:00)
Language:

SR - Orbit

View from above orbital plane
View from above orbital plane
View from above satellite
View from above satellite

Ground track
Ground track

The orbit data is extracted from the following two-line orbital elements,

1    46U 60007B   24113.94884976  .00004503  00000-0  88025-3 0  9997
2    46  66.6912 204.7933 0200771 164.5027 196.2355 14.51769750342861
Epoch (UTC): 22 April 2024 22:46:20
Eccentricity: 0.0200771
inclination: 66.6912°
perigee height: 577 km
apogee height: 862 km
right ascension of ascending node: 204.7933°
argument of perigee: 164.5027°
revolutions per day: 14.51769750
mean anomaly at epoch: 196.2355°
orbit number at epoch: 34286

The dashed part of the orbit path shows where the satellite is in the earth's shadow,  

DLR